User: anonymous   Login
Location: Oshawa
(43.9000°N, 78.8670°W)
Time: 11:25:07
(UTC-05:00)
Language:

Iridium 46 - Orbit

View from above orbital plane
View from above orbital plane
View from above satellite
View from above satellite

Ground track
Ground track

The orbit data is extracted from the following two-line orbital elements,

1 24905U 97043C   14352.34893763  .00000783  00000-0  27264-3 0  1221
2 24905 086.3984 277.0409 0002203 100.1258 260.0187 14.34224781907133
Epoch (UTC): 18 December 2014 08:22:28
Eccentricity: 0.0002203
inclination: 86.3984°
perigee height: 776 km
apogee height: 779 km
right ascension of ascending node: 277.0409°
argument of perigee: 100.1258°
revolutions per day: 14.34224781
mean anomaly at epoch: 260.0187°
orbit number at epoch: 90713

The dashed part of the orbit path shows where the satellite is in the earth's shadow,  

DLR